Temp
15 15 15 14 14 14 14 14 14 14 14 14 14 14 13 13 12 12 12 12 12 13 13 13 13 14 15 16 18 20 20 20 20 19 19 20 20 21 21 21 20 21 22 21 21 21 21
14 14 15 15 14 14 14 14 14 14 14 14 14 13 13 12 12 12 12 12 12 12 12 12 13 13 14 16 19 19 19 18 19 19 18 19 20 20 20 20 20 20 20 20 20 21 21
13 13 14 15 15 14 14 14 14 14 14 14 14 13 13 12 12 12 12 12 12 12 12 12 12 12 12 16 18 18 17 17 17 17 18 18 18 20 19 19 19 19 19 20 21 21 21
11 13 13 13 14 14 14 14 14 14 14 14 13 13 12 12 12 12 12 12 12 11 11 11 11 11 12 16 16 17 17 16 17 16 15 17 17 17 18 19 19 19 19 20 21 20 21
10 10 10 13 13 14 14 14 14 14 14 14 13 13 13 13 12 12 12 11 11 11 11 10 10 11 13 15 14 17 16 16 15 14 14 16 16 17 18 18 18 17 19 18 19 21 21
10 10 10 10 13 13 13 14 14 14 14 13 13 13 13 13 12 12 11 11 11 10 10 10 10 11 13 16 16 16 16 16 17 15 15 16 16 16 16 18 19 19 17 17 18 20 20
9 10 10 10 13 13 13 13 14 14 14 13 13 13 13 12 12 11 11 11 10 10 9 13 12 14 15 15 16 16 16 16 17 17 17 16 16 16 17 18 20 19 18 18 18 19 19
9 9 9 10 10 12 12 12 14 14 14 13 13 13 12 12 12 11 12 11 12 13 12 10 11 11 12 13 15 16 16 17 16 17 17 16 16 18 17 17 17 18 18 18 19 19 19
8 9 9 9 10 10 12 12 12 13 13 13 13 13 12 11 10 10 10 12 13 14 13 13 11 12 13 13 14 14 16 16 16 16 16 18 19 18 17 17 16 17 16 17 18 19 19
8 9 9 9 9 9 9 12 12 12 11 11 12 12 10 9 8 9 10 12 13 13 13 14 12 13 13 13 14 13 15 16 15 17 16 17 17 18 18 17 17 17 18 18 18 17 18
8 8 8 9 9 9 10 10 12 12 12 11 11 11 9 10 10 10 12 12 12 12 11 14 13 14 13 14 15 14 14 15 15 15 16 17 16 16 16 17 18 18 18 17 18 17 17
7 8 9 9 9 10 10 10 12 12 12 11 10 9 8 8 10 11 12 12 13 9 10 14 13 13 13 14 15 14 15 15 15 14 15 16 16 16 17 17 17 17 17 16 17 17 16
5 8 8 9 10 10 11 11 12 12 11 10 9 8 7 8 9 11 12 10 7 9 14 14 13 13 14 14 15 15 14 14 15 15 14 15 16 16 16 16 16 16 15 15 16 15 17
5 9 8 11 13 13 12 12 12 11 9 8 7 7 7 8 9 10 11 9 8 9 13 14 14 14 14 13 13 14 14 12 12 13 15 15 15 15 15 15 15 15 16 15 15 16 18
4 6 9 12 12 13 11 12 10 9 8 7 7 6 6 6 8 9 9 8 9 9 13 13 13 14 12 13 13 13 12 12 11 11 14 12 13 14 14 14 15 14 14 14 13 14 14
3 5 9 8 11 11 10 8 8 7 7 7 7 6 6 6 7 8 7 8 7 11 12 13 12 12 12 12 12 13 12 12 10 10 11 9 11 12 13 15 14 14 13 13 13 13 13
2 4 8 9 8 8 8 7 7 7 6 6 6 4 6 6 7 6 8 7 7 10 11 10 9 9 10 10 12 12 12 10 10 9 10 10 10 12 13 13 13 13 13 11 10 10 11
2 4 8 7 8 7 7 7 7 7 6 5 5 5 5 6 6 5 7 7 9 8 9 9 9 9 10 11 11 11 11 12 10 10 10 9 9 8 11 11 12 12 9 8 9 9 9
2 2 6 8 7 7 7 7 6 5 5 4 3 3 5 7 6 6 6 7 8 8 9 8 8 9 10 10 9 10 11 9 9 10 8 9 8 9 11 10 10 9 9 8 8 8 8
2 2 3 5 7 7 7 6 6 6 6 5 4 5 4 4 4 7 7 6 6 8 8 9 8 8 8 8 8 8 9 8 8 9 10 10 8 9 10 11 10 9 10 10 8 8 9
3 2 2 3 6 7 7 6 6 6 6 5 3 4 5 5 4 7 7 7 7 7 7 8 7 8 8 6 7 7 8 8 8 9 10 8 7 8 9 10 10 9 9 10 9 9 8
4 4 3 3 4 5 6 6 6 6 5 3 4 4 4 6 7 7 8 7 8 6 7 6 6 7 7 7 8 7 7 8 8 8 8 7 7 7 5 9 8 8 9 9 9 9 9
4 4 4 3 4 4 5 5 5 5 5 2 2 4 5 6 6 6 5 7 7 7 6 7 6 6 6 6 6 7 7 6 7 7 7 6 5 5 7 8 7 6 9 9 10 10 10
4 4 4 4 4 4 4 4 4 4 5 3 3 4 5 6 6 6 6 7 7 7 6 6 6 6 6 5 5 5 5 4 5 5 7 5 6 5 6 7 4 9 9 9 8 9 9
4 4 4 4 4 4 4 4 4 4 4 4 3 4 4 5 6 6 6 6 6 7 5 5 6 6 6 6 5 5 4 5 6 6 6 6 7 5 5 5 7 8 9 8 7 8 9
3 4 4 4 4 4 4 4 4 3 3 4 3 5 4 5 5 6 5 6 5 5 5 5 4 5 6 6 5 4 5 6 6 6 5 5 7 6 4 4 5 9 7 8 8 7 9
4 3 4 4 4 4 4 4 3 3 3 3 2 4 3 3 4 6 5 6 5 5 6 6 4 4 5 3 3 5 6 6 6 6 5 3 4 4 5 5 6 8 8 8 7 9 9
4 4 4 4 4 4 4 4 4 3 2 3 2 3 3 2 3 4 5 4 4 5 5 4 5 4 3 4 5 3 4 5 5 7 7 6 3 4 3 3 4 8 7 7 10 9 9
3 4 4 4 4 4 4 4 4 2 2 2 0 2 4 2 3 3 4 5 5 5 4 3 6 4 4 3 1 0 3 1 4 5 6 6 6 6 5 5 8 7 9 9 8 8 8
Height
715 720 724 729 734 738 742 748 752 757 763 766 770 773 777 782 785 787 789 789 790 791 792 793 793 792 792 794 783 777 777 777 778 777 779 779 783 786 788 787 785 784 777 777 776 774 771
701 707 711 716 722 727 733 738 743 749 755 759 764 769 773 777 781 783 785 787 788 789 789 790 792 793 794 794 774 774 773 775 775 776 777 777 781 782 785 787 786 780 781 779 774 770 768
696 694 700 704 710 716 722 728 734 740 746 752 757 762 768 771 777 780 782 783 787 786 788 789 791 791 795 782 771 770 771 772 774 775 778 777 779 781 785 785 782 781 783 777 770 763 763
690 688 688 693 698 704 710 718 724 730 738 743 749 755 762 766 771 775 780 782 784 785 787 787 789 791 787 771 769 766 766 769 768 772 775 776 778 781 782 783 781 785 782 783 769 766 757
680 679 680 681 684 691 699 707 714 720 728 735 741 748 755 760 766 770 775 780 782 783 783 788 788 790 781 769 768 763 765 767 768 768 772 774 779 781 783 787 790 790 782 788 780 765 762
669 672 672 672 671 678 686 695 702 711 718 726 734 740 748 754 760 766 771 777 779 783 784 786 788 791 775 766 761 763 764 766 767 769 774 776 780 784 788 787 783 777 788 784 785 770 766
661 661 663 665 663 663 672 682 691 700 708 716 726 733 740 746 752 758 764 776 782 785 780 768 771 769 765 763 761 762 763 764 766 768 770 775 780 780 777 774 765 771 778 781 778 769 767
650 649 653 655 655 656 658 668 678 686 696 704 714 723 730 738 744 751 757 760 762 761 767 764 766 768 765 763 764 761 762 763 765 768 769 776 773 768 770 775 777 776 777 777 769 764 767
640 637 641 645 645 650 648 652 664 674 683 693 703 713 719 728 737 745 747 753 756 758 765 760 758 759 760 763 761 757 757 760 763 767 765 762 759 762 769 773 778 775 778 775 774 766 762
630 628 628 629 633 636 641 640 647 658 670 682 692 701 708 719 737 735 743 749 753 757 768 754 754 750 755 755 755 753 753 757 764 760 766 763 758 759 763 767 769 769 762 764 768 773 769
619 616 617 616 619 623 625 631 634 643 656 669 679 688 699 702 714 723 731 742 749 757 778 744 748 748 747 752 747 751 752 754 758 758 760 758 758 760 764 760 759 762 759 761 762 768 770
609 603 598 599 601 605 610 618 623 631 640 651 666 675 689 704 711 715 724 736 747 775 767 741 741 744 748 747 745 748 750 752 754 758 758 757 757 759 754 754 754 759 762 763 761 766 770
598 587 581 577 579 584 592 602 610 619 627 638 653 665 683 693 700 709 717 732 773 765 733 734 735 737 740 745 746 746 751 756 756 761 761 758 756 753 754 758 758 762 769 772 764 767 752
587 573 562 545 548 558 567 583 596 608 622 635 644 665 684 689 696 703 709 737 752 739 725 725 730 736 737 743 749 748 749 760 763 759 759 759 758 756 761 762 762 763 762 768 767 751 740
581 565 545 514 519 528 549 570 582 598 613 632 644 666 679 691 696 700 709 732 725 728 714 718 730 733 742 743 741 748 756 761 766 766 759 771 763 762 763 762 761 766 765 771 771 756 756
576 568 551 528 512 527 547 565 578 595 612 628 646 666 683 688 695 701 715 716 725 720 716 718 724 735 737 743 742 745 752 762 770 772 768 782 776 769 767 759 765 764 768 770 768 756 743
580 568 555 550 539 538 556 570 580 597 614 630 651 673 683 690 700 707 706 718 726 721 720 729 743 747 743 745 742 748 752 766 767 775 772 773 776 766 764 762 763 767 765 779 784 782 768
587 573 561 559 559 571 573 580 590 602 621 638 653 668 683 686 701 706 706 713 717 728 728 735 742 746 750 746 751 752 754 754 767 769 772 778 783 784 768 769 765 765 781 787 787 785 790
592 581 564 569 573 582 590 591 599 611 622 632 657 674 681 684 692 700 710 715 718 723 728 739 744 742 751 751 760 755 756 766 767 770 777 778 787 784 761 773 774 775 782 782 789 790 781
601 589 582 574 580 589 597 600 607 615 624 631 653 671 684 690 696 691 701 714 721 723 732 736 746 744 751 756 760 767 766 770 770 771 772 773 781 780 775 761 767 772 768 770 784 784 770
608 602 595 591 587 594 602 610 612 620 627 637 654 663 670 681 694 690 695 706 716 728 731 732 748 742 744 762 766 769 766 768 769 769 769 776 783 780 774 769 766 770 767 762 770 767 777
614 612 610 606 602 607 613 614 617 625 633 643 655 662 671 676 683 687 693 707 709 726 727 738 744 747 747 754 753 765 766 766 764 771 771 780 780 784 790 772 773 774 765 758 756 755 753
618 617 616 615 613 615 619 623 629 634 639 648 658 658 661 679 686 691 702 706 710 717 732 732 743 751 754 752 755 760 766 769 767 768 770 780 786 792 776 771 777 778 757 750 745 744 745
618 619 620 621 623 625 628 632 636 641 647 652 658 661 670 682 686 692 699 704 713 717 730 739 743 745 750 753 760 766 770 772 771 772 773 781 777 789 782 779 790 746 751 753 752 745 741
619 619 620 624 628 632 635 638 642 646 651 654 660 664 673 682 686 696 701 708 716 720 730 740 743 745 748 753 760 765 772 768 763 770 775 773 775 786 788 779 760 746 747 750 752 739 740
617 619 621 625 629 633 638 642 646 651 656 661 664 667 672 682 694 693 704 709 719 725 732 738 745 746 746 755 761 768 763 759 762 764 772 775 774 775 788 786 767 736 744 747 748 738 730
612 616 620 624 629 635 640 645 649 653 657 664 670 670 675 689 696 694 702 705 711 719 724 732 743 751 751 764 770 766 762 760 760 758 768 784 781 777 777 774 754 738 736 742 746 730 723
609 611 616 621 627 632 639 645 650 656 660 664 674 677 681 692 699 698 700 705 712 715 721 734 741 752 759 760 759 772 769 762 760 753 752 759 777 775 781 782 772 731 737 738 723 722 722
601 606 611 617 624 630 636 644 651 657 663 669 678 683 684 690 700 701 703 705 708 713 720 732 729 738 744 755 771 774 770 776 765 759 752 754 748 752 758 746 730 730 720 719 722 723 719
Wind_Speed
58 58 56 54 53 52 48 47 44 42 40 36 33 30 27 23 19 16 14 13 11 8 6 7 7 7 3 2 8 6 8 10 11 8 6 2 4 3 4 3 3 7 9 9 8 13 12
58 61 59 57 56 55 53 50 48 45 42 39 35 32 29 25 20 19 17 14 11 7 4 3 4 3 2 4 8 11 10 5 3 2 3 4 2 2 3 3 4 4 9 12 12 19 17
40 62 61 60 59 58 56 54 51 48 46 42 38 33 30 25 24 21 17 14 11 7 4 2 1 2 1 14 8 11 8 10 12 10 3 3 3 3 1 3 4 6 13 16 15 11 7
33 40 59 60 62 61 59 58 55 51 49 44 40 36 31 27 25 21 17 15 11 7 4 2 2 2 7 11 12 15 16 18 15 15 10 7 6 4 3 4 5 9 11 8 3 1 3
40 40 27 57 61 62 62 60 57 54 51 46 42 39 34 30 26 23 19 14 9 5 5 4 2 3 9 6 8 1 5 3 5 6 7 6 5 5 4 5 5 3 10 6 7 7 6
35 38 38 40 63 64 62 63 59 57 52 48 45 42 37 34 30 26 20 12 7 6 8 6 4 4 7 5 2 2 3 3 2 9 7 4 3 4 2 7 10 7 7 5 6 5 5
41 40 40 39 53 64 64 63 62 58 54 50 47 44 43 37 34 29 23 13 5 2 5 9 7 4 1 2 1 4 5 5 3 2 5 5 4 8 15 18 12 9 9 12 9 12 19
44 41 39 40 38 46 64 63 65 61 58 55 52 50 46 42 37 31 27 5 6 4 3 14 9 9 9 0 3 4 5 4 5 7 5 3 9 11 12 13 13 13 15 15 14 11 5
37 35 41 43 41 42 57 65 63 64 60 58 56 54 50 45 38 32 28 17 15 6 1 4 7 7 7 11 7 6 9 3 6 6 10 15 6 6 9 7 9 12 12 14 16 16 15
35 33 40 43 44 45 43 63 66 64 61 59 60 58 55 47 27 28 13 24 15 10 2 5 5 6 6 6 4 5 7 5 4 14 7 10 7 17 18 13 10 16 12 15 14 8 9
22 32 42 43 49 49 47 42 67 68 65 64 62 60 56 57 22 17 19 29 21 5 3 4 5 11 7 6 6 3 6 3 8 8 7 7 2 3 7 10 10 6 2 6 9 10 11
31 38 39 47 51 52 53 49 66 69 67 68 63 64 58 29 21 24 38 36 14 6 10 6 6 8 6 3 3 4 3 2 2 3 2 5 2 3 6 4 5 2 1 4 7 7 9
34 42 40 49 59 59 58 53 66 67 69 67 63 62 49 32 16 45 47 11 6 6 2 8 6 8 5 4 4 5 5 3 2 4 3 3 5 2 2 4 3 4 3 4 3 5 9
37 39 36 49 65 65 59 58 65 60 59 59 60 53 28 15 45 48 28 7 5 10 7 4 6 8 6 4 2 2 6 4 7 3 1 1 4 3 3 3 2 3 4 4 7 13 18
43 38 31 27 43 50 56 59 62 67 67 63 58 28 23 27 39 35 16 7 7 6 7 12 6 6 4 3 5 4 3 5 3 5 2 1 3 2 8 2 2 3 2 7 7 18 13
40 49 8 23 39 47 56 66 68 65 63 60 30 25 11 27 33 24 8 6 5 1 4 3 5 2 6 4 4 4 6 4 5 3 2 3 4 1 1 2 7 5 1 2 3 5 5
39 49 14 9 34 56 59 62 65 62 57 46 27 5 16 33 24 5 8 4 5 3 6 5 4 4 4 4 5 3 4 3 5 3 3 4 1 4 4 1 3 4 2 3 2 3 4
38 42 25 33 34 34 49 55 53 57 53 34 4 5 26 35 4 3 5 11 9 9 8 6 6 7 3 5 4 4 6 5 9 7 3 1 2 4 4 4 4 6 2 3 1 2 4
33 38 29 28 41 46 44 52 52 56 46 21 4 3 10 20 5 4 7 8 6 9 8 4 4 5 1 4 4 3 5 2 10 8 8 7 2 3 7 5 1 3 5 4 3 2 11
24 30 34 23 37 38 40 45 52 50 38 11 4 5 3 2 1 8 12 8 7 7 8 5 5 5 4 3 2 4 4 6 9 5 5 8 5 5 8 9 1 7 10 7 4 6 8
19 21 25 26 12 40 37 40 42 37 30 10 2 3 3 7 5 13 6 7 13 6 3 4 2 7 7 4 4 4 5 2 5 6 7 7 6 9 13 12 13 14 18 19 17 19 11
14 13 14 19 17 24 27 25 31 28 18 8 3 4 1 9 12 15 7 6 14 6 6 5 6 7 5 6 6 7 7 5 4 3 7 3 4 4 4 9 8 15 18 19 21 20 19
11 9 6 9 15 10 13 29 28 26 15 3 2 3 4 8 9 8 6 8 10 10 3 6 8 5 5 7 4 3 2 2 1 5 8 6 5 2 5 1 7 10 17 15 14 18 17
8 7 3 2 3 7 11 10 23 24 11 9 3 3 4 4 7 6 13 7 16 9 8 5 6 5 2 10 10 8 5 3 2 4 5 5 6 3 4 3 5 4 5 6 7 13 8
9 7 6 5 10 7 9 12 14 16 10 16 4 4 3 5 7 10 13 8 9 7 4 6 4 3 12 4 3 3 2 1 5 11 12 7 5 3 3 5 10 14 5 2 3 17 6
11 10 11 11 12 16 14 12 14 14 11 14 12 9 3 7 4 9 8 9 6 5 5 4 5 7 5 3 2 3 4 3 4 4 1 9 10 7 4 5 6 2 6 7 7 15 7
14 14 15 17 17 18 22 18 15 15 19 21 6 8 8 4 1 7 5 8 6 5 6 6 5 4 1 2 2 2 3 1 4 7 6 5 5 13 11 8 7 11 9 3 5 10 8
15 18 19 21 21 20 23 24 21 21 23 20 11 13 7 3 2 2 3 5 4 4 6 7 5 1 2 4 3 3 3 4 2 3 6 10 8 6 5 5 11 12 4 6 7 10 15
17 20 23 24 24 24 23 27 26 27 23 21 6 13 7 4 3 3 5 6 3 5 5 1 3 5 5 4 2 3 2 2 4 3 3 5 7 5 9 8 6 6 5 7 9 14 17
Wind_Direction
241 239 237 235 234 233 231 230 228 228 227 225 223 222 221 222 221 225 233 234 245 252 272 304 322 348 6 13 251 227 242 260 275 293 308 302 224 182 218 239 305 245 269 272 272 291 286
234 238 237 234 233 233 232 230 228 227 226 224 222 222 220 220 219 224 227 233 231 228 242 279 319 355 108 242 239 255 263 261 195 199 144 138 167 231 255 257 243 323 296 293 292 284 280
244 229 232 234 232 231 231 229 228 227 225 222 221 219 218 216 220 225 226 213 214 207 211 247 325 70 243 243 231 237 251 266 271 271 275 203 148 189 123 257 341 305 303 303 280 273 260
283 241 226 229 233 230 229 229 227 225 225 221 218 215 213 216 218 214 207 205 204 198 192 186 119 82 248 261 266 266 276 266 264 250 216 180 120 114 173 298 319 300 288 287 356 288 263
265 273 284 228 226 231 229 228 227 224 223 219 215 212 210 213 208 198 197 199 200 200 183 186 112 102 261 292 264 297 216 183 124 113 155 102 152 181 162 222 282 233 271 261 300 300 305
261 266 273 281 220 223 226 227 225 224 221 218 214 209 210 204 197 191 187 185 165 144 135 135 93 30 261 234 173 145 186 191 139 123 96 139 124 139 157 186 243 228 232 239 279 319 300
262 261 265 270 223 219 218 221 224 222 218 215 213 210 205 198 190 185 167 137 113 171 212 192 181 241 253 291 282 182 152 149 148 182 192 189 180 205 205 211 243 284 281 283 271 279 290
266 249 253 258 268 232 214 214 220 220 217 212 210 211 198 193 187 185 180 176 195 144 222 232 233 258 261 137 346 219 194 186 176 205 151 180 246 240 218 221 239 260 277 286 284 274 268
268 258 254 254 259 257 219 211 212 215 214 212 208 210 194 187 181 177 179 187 167 130 314 255 195 215 230 186 218 237 164 184 203 204 206 231 198 94 187 212 228 240 250 268 271 293 285
269 272 261 255 252 251 251 209 208 209 206 203 206 206 189 176 162 173 180 184 167 151 310 235 208 238 169 156 248 206 204 161 208 230 207 263 244 247 248 249 247 269 224 245 264 287 294
284 277 274 259 248 247 246 245 206 203 201 200 197 194 181 174 162 172 173 170 155 90 250 164 152 160 146 191 135 152 170 129 187 184 158 206 180 158 213 230 209 248 230 257 271 268 296
296 292 277 254 243 243 241 248 206 202 197 195 188 181 174 177 155 163 150 145 123 89 230 195 138 162 148 211 167 123 167 117 136 174 216 234 124 249 210 178 177 90 246 297 261 239 247
310 300 281 254 244 236 234 240 206 200 190 183 172 168 166 160 161 151 143 137 95 183 225 180 166 161 165 159 138 167 158 101 185 157 193 191 224 112 54 233 299 265 299 313 267 195 257
323 301 298 268 242 229 229 218 199 189 171 160 150 151 160 158 150 151 145 115 175 186 174 110 139 131 140 145 80 110 124 128 34 21 133 164 169 64 0 87 277 306 178 226 269 277 282
339 327 344 253 219 216 198 190 171 158 153 145 141 131 130 148 155 155 141 188 181 171 165 145 119 145 130 170 131 130 91 118 61 353 150 75 209 71 52 34 300 36 196 342 282 260 267
344 333 304 36 173 163 157 147 144 142 139 140 135 134 129 151 151 131 144 126 138 324 85 137 129 189 146 152 120 132 152 127 125 35 28 140 288 136 308 129 67 98 358 350 276 281 272
353 338 151 125 84 120 130 133 133 133 131 129 115 101 141 157 145 140 170 126 129 85 77 81 115 111 116 105 88 59 86 82 123 134 90 149 173 197 298 192 290 310 209 173 207 237 285
353 355 136 134 131 123 123 128 129 134 137 127 102 111 153 146 133 133 131 134 116 121 81 86 86 92 112 113 129 146 163 152 168 154 145 139 150 285 289 337 276 226 143 120 192 295 294
357 2 12 144 139 144 147 148 151 151 150 125 93 93 138 163 153 120 130 122 108 134 114 106 126 131 137 150 125 162 131 154 153 160 165 167 167 302 294 137 102 172 193 176 128 209 247
359 4 16 35 173 164 164 160 156 150 151 94 110 124 70 78 251 131 127 128 113 106 126 117 120 107 115 100 40 136 147 159 178 190 158 159 174 204 248 271 183 260 266 253 202 258 272
355 9 21 21 85 139 149 148 145 150 146 95 47 100 149 167 167 142 107 126 124 132 102 119 93 161 142 131 146 178 190 137 173 197 171 171 226 220 241 256 273 284 280 291 264 253 257
354 0 21 34 50 106 164 156 148 143 130 82 115 130 69 119 128 127 110 149 150 127 135 156 143 180 149 150 172 187 166 178 193 166 166 143 221 196 262 260 272 275 276 266 275 278 266
332 354 5 39 45 78 100 142 153 145 138 77 18 44 94 128 136 124 157 145 151 123 45 141 150 128 155 204 158 133 119 98 225 179 173 172 163 166 266 34 322 278 252 264 277 284 281
307 312 346 178 74 92 153 141 148 153 148 115 83 94 88 112 136 138 135 121 147 150 124 127 127 136 132 112 102 98 97 130 187 216 220 185 159 163 259 315 250 263 322 286 284 291 295
287 264 259 208 188 172 161 164 184 146 158 104 92 89 102 114 124 115 137 124 117 115 101 130 146 138 140 96 102 107 45 29 225 220 218 207 175 186 243 218 283 285 240 203 313 293 301
253 237 230 222 204 193 182 178 168 167 158 130 77 86 92 119 181 136 131 148 139 135 121 110 65 141 70 82 85 161 177 179 175 145 178 205 217 203 183 235 246 256 182 217 216 285 202
255 231 219 218 212 199 191 181 174 166 150 144 102 84 75 96 326 130 142 164 126 118 137 122 125 141 49 100 108 154 208 215 190 182 165 156 197 217 223 243 272 255 229 200 260 298 311
244 234 222 211 210 204 191 184 169 147 139 145 109 101 92 94 89 73 125 132 111 138 147 143 112 110 110 156 169 177 194 206 219 215 179 186 175 200 192 221 256 234 175 203 267 300 294
241 224 216 210 204 201 192 182 175 161 158 142 102 119 100 87 119 84 81 86 92 134 116 188 141 153 157 127 174 119 175 186 194 228 219 232 203 189 196 215 244 212 217 260 276 282 293